Location: Bowden
(51.9167°N, 114.0333°W)
Time: 09:56:42
(UTC+00:00)

Envisat - Pass Details

Date: 13 December 2021
Orbit: 764 x 766 km, 98.2° (Epoch: 28 January)

Event Time Altitude Azimuth Distance (km) Brightness Sun altitude
Rises 11:36:21 0° 23° (NNE) 3,247 6.6 -35.5°
Reaches altitude 10° 11:39:07 10° 38° (NE) 2,315 5.9 -35.1°
Maximum altitude 11:43:12 24° 91° (E) 1,567 5.1 -34.4°
Drops below altitude 10° 11:47:14 10° 144° (SE) 2,300 5.8 -33.8°
Sets 11:49:58 0° 158° (SSE) 3,220 6.4 -33.4°
